sat.trackr.live / text

‹ back to catalog

CUBESAT XI-V

NORAD 28895 · 2005-043F

PAYLOAD ACTIVE UNKNOWN

§ Identity

Operator
Country
JPN
Launch date
2005-10-27
Launch site
PLMSC
Launch vehicle
Mass (kg)
RCS (m²)
0.02

Purposes: comms, tech_demo

External: N2YO · Heavens-Above · Gunter

§ Orbital elements

Epoch: 2026-09-19T03:52:38.705376Z

Period
97.77 min
Inclination
98.3107°
Eccentricity
0.0012759
Mean motion
14.72833561 rev/d
Perigee alt
643.1 km
Apogee alt
661.0 km
Semi-major
7,030.2 km
B*
1.4351e-4
RAAN
59.8396°
Arg perigee
267.1985°
Mean anomaly
92.7762°
Rev number
11,558

§ Raw data

CUBESAT XI-V1 28895U 05043F   26262.16155909  .00000866  00000+0  14351-3 0  99942 28895  98.3107  59.8396 0012759 267.1985  92.7762 14.72833561115587

JSON: /api/v1/satellites/28895 · /tle

For live sub-satellite position, see the globe view (requires WebGL).

§ Visibility from observer

Set your observer location to see the next 7 days of passes ≥ 10°. The values pass through the URL so the page stays shareable.

No JS? Fill the form by hand. The geolocation button needs JavaScript.

§ Radio — SatNOGS DB

ModeDescriptionDownlinkUplink
CW Mode U CW BEACON 437.463 MHz
AFSK Mode U TLM (inactive) 437.345 MHz

2 transmitters · refreshed weekly from db.satnogs.org